Tracking 32407 objects as of 5-Dec-2025
HD Live streaming from Space Station
objects crossing your sky now

SL-24 DEB

Track SL-24 DEB now!
10-day predictions


NORAD ID: 37586
Int'l Code: 2004-025L
Perigee: 662.0 km
Apogee: 1,079.4 km
Inclination: 98.2 °
Period: 102.2 minutes
Semi major axis: 7241 km
RCS: 0.003 m2 (small)
Launch date: June 29, 2004
Source: Commonwealth of Independent States (former USSR) (CIS)
Launch site: TYURATAM MISSILE AND SPACE COMPLEX (TTMTR)

Note: This is SATELLITE DEBRIS
Your satellite tracking list
Your tracking list is empty




NASA's NSSDC Master Catalog

Two Line Element Set (TLE):
1 37586U 04025L   25339.32759757  .00006128  00000-0  24373-2 0  9995
2 37586  98.1678  12.1558 0288152 217.5703 140.5025 14.08772769779497
Source of the keplerian elements: AFSPC